Biloxi, MS

7:19 AM CDT on April 29, 2017 (GMT -0500)
Keesler Air Force Base

Weather History for KBIX - February, 2013

Change the Weather History Date:

Sunday, February 10, 2013

  Actual Average Record
Temperature  
Mean Temperature 64 °F -  
Max Temperature 68 °F 59 °F 78 °F (1957)
Min Temperature 60 °F 40 °F 24 °F (1973)
Degree Days  
Heating Degree Days 1    
Growing Degree Days 14 (Base 50)    
Moisture  
Dew Point 64 °F    
Average Humidity 91    
Maximum Humidity 100    
Minimum Humidity 82    
Precipitation  
Precipitation 0.05 in - - ()
Sea Level Pressure  
Sea Level Pressure 30.02 in    
Wind  
Wind Speed 14 mph (SSE)    
Max Wind Speed 20 mph    
Max Gust Speed 26 mph    
Visibility 8 miles    
Events Rain , Thunderstorm    
Averages and records for this station are not official NWS values.
T = Trace of Precipitation, MM = Missing Value Source: NWS Daily Summary

Daily Weather History Graph

Daily Weather History Graph

Search for Another Location

Airport or City:

Trip Planner

Search our weather history database for the weather conditions in past years. The results will help you decide how hot, cold, wet, or windy it might be!

Date:

Astronomy

Feb. 10, 2013 Rise Set
Actual Time 6:40 AM CST 5:40 PM CST
Civil Twilight 6:15 AM CST 6:04 PM CST
Nautical Twilight 5:46 AM CST 6:33 PM CST
Astronomical Twilight 5:18 AM CST 7:01 PM CST
Moon 6:35 AM CST (2/10) 6:23 PM CST (2/10)
Length of Visible Light 11h 49m
Length of Day
11h 00m
New Moon, 0% of the Moon is Illuminated
Feb 10
New Moon
Feb 17
First Quarter
Feb 25
Full
Mar 4
Last Quarter
Mar 11
New

Hourly Weather History & Observations

Time (CST) Temp. Dew Point Humidity Pressure Visibility Wind Dir Wind Speed Gust Speed Precip Events Conditions
12:03 AM 60.8 °F 57.2 °F 88% 30.10 in 10.0 mi ESE 9.2 mph - N/A   Overcast
12:58 AM 62.6 °F 58.5 °F 86% 30.10 in 10.0 mi ESE 12.7 mph - N/A   Overcast
1:03 AM 62.6 °F 59.0 °F 88% 30.08 in 10.0 mi ESE 13.8 mph - N/A   Overcast
1:58 AM 63.1 °F 57.6 °F 82% 30.09 in 10.0 mi ESE 15.0 mph - N/A   Overcast
2:58 AM 63.1 °F 57.7 °F 83% 30.07 in 10.0 mi ESE 15.0 mph - N/A   Overcast
3:58 AM 63.3 °F 58.1 °F 83% 30.04 in 10.0 mi ESE 16.1 mph - N/A   Overcast
4:03 AM 62.6 °F 59.0 °F 88% 30.03 in 10.0 mi ESE 17.3 mph - N/A   Overcast
4:13 AM 62.6 °F 59.0 °F 88% 30.03 in 10.0 mi ESE 19.6 mph 24.2 mph N/A   Overcast
4:27 AM 62.6 °F 59.0 °F 88% 30.03 in 10.0 mi ESE 16.1 mph 24.2 mph N/A Rain Light Rain
4:32 AM 62.6 °F 59.0 °F 88% 30.03 in 10.0 mi ESE 16.1 mph 24.2 mph N/A Rain Light Rain
4:37 AM 62.6 °F 59.0 °F 88% 30.03 in 10.0 mi ESE 13.8 mph - N/A   Overcast
4:58 AM 63.0 °F 59.2 °F 87% 30.02 in 10.0 mi ESE 13.8 mph - 0.00 in   Overcast
5:58 AM 63.3 °F 59.5 °F 87% 30.04 in 10.0 mi SE 15.0 mph - N/A   Overcast
6:03 AM 64.4 °F 59.0 °F 83% 30.03 in 10.0 mi SE 16.1 mph - N/A   Overcast
6:23 AM 64.4 °F 60.8 °F 88% 30.03 in 10.0 mi SE 15.0 mph - N/A   Overcast
6:58 AM 64.2 °F 60.1 °F 86% 30.05 in 10.0 mi SE 12.7 mph 20.7 mph N/A   Overcast
7:38 AM 64.4 °F 60.8 °F 88% 30.05 in 10.0 mi SE 15.0 mph 20.7 mph N/A   Overcast
7:58 AM 65.3 °F 61.0 °F 86% 30.06 in 10.0 mi SE 15.0 mph - N/A   Overcast
8:03 AM 66.2 °F 60.8 °F 83% 30.05 in 10.0 mi SE 13.8 mph - N/A   Overcast
8:43 AM 66.2 °F 60.8 °F 83% 30.06 in 10.0 mi SE 13.8 mph - N/A   Overcast
8:58 AM 66.9 °F 61.7 °F 83% 30.06 in 10.0 mi SE 16.1 mph 21.9 mph N/A   Overcast
9:18 AM 68.0 °F 62.6 °F 83% 30.05 in 10.0 mi SE 15.0 mph 23.0 mph N/A   Overcast
9:58 AM 67.5 °F 62.1 °F 83% 30.07 in 10.0 mi SSE 16.1 mph 26.5 mph N/A   Overcast
10:13 AM 68.0 °F 62.6 °F 83% 30.06 in 10.0 mi SSE 17.3 mph 24.2 mph N/A   Overcast
10:33 AM 68.0 °F 62.6 °F 83% 30.05 in 10.0 mi SSE 17.3 mph 24.2 mph N/A   Mostly Cloudy
10:58 AM 67.5 °F 62.6 °F 84% 30.05 in 10.0 mi SSE 16.1 mph 23.0 mph N/A   Overcast
12:58 PM 68.2 °F 63.9 °F 86% 29.99 in 10.0 mi SSE 13.8 mph 25.3 mph N/A   Overcast
1:35 PM 68.0 °F 64.4 °F 88% 29.98 in 10.0 mi SSE 12.7 mph 20.7 mph N/A   Mostly Cloudy
1:58 PM 68.5 °F 64.2 °F 86% 29.99 in 10.0 mi SSE 12.7 mph 21.9 mph N/A   Overcast
2:28 PM 68.0 °F 64.4 °F 88% 29.97 in 10.0 mi SSE 13.8 mph 21.9 mph N/A   Overcast
2:38 PM 68.0 °F 64.4 °F 88% 29.97 in 10.0 mi SSE 11.5 mph - N/A   Overcast
2:48 PM 68.0 °F 64.4 °F 88% 29.97 in 10.0 mi SSE 12.7 mph - N/A   Overcast
2:58 PM 68.0 °F 64.8 °F 89% 29.98 in 10.0 mi SSE 10.4 mph - N/A   Overcast
3:14 PM 68.0 °F 64.4 °F 88% 29.97 in 10.0 mi SSE 12.7 mph - N/A   Overcast
3:35 PM 68.0 °F 64.4 °F 88% 29.97 in 10.0 mi SSE 11.5 mph - N/A   Overcast
3:45 PM 68.0 °F 64.4 °F 88% 29.97 in 10.0 mi SSE 9.2 mph - N/A   Overcast
3:58 PM 68.5 °F 65.5 °F 90% 29.98 in 10.0 mi SSE 10.4 mph 18.4 mph N/A   Overcast
4:15 PM 68.0 °F 66.2 °F 94% 29.97 in 10.0 mi South 10.4 mph - N/A Thunderstorm Overcast
4:16 PM 68.0 °F 66.2 °F 94% 29.97 in 9.0 mi SSE 10.4 mph - N/A Rain , Thunderstorm Light Rain
4:29 PM 68.0 °F 66.2 °F 94% 29.97 in 10.0 mi South 10.4 mph - N/A   Overcast
4:45 PM 68.0 °F 66.2 °F 94% 29.97 in 6.0 mi South 10.4 mph - N/A Rain Light Rain
4:58 PM 67.5 °F 65.8 °F 95% 29.98 in 7.0 mi South 11.5 mph - 0.05 in Rain Light Rain
4:59 PM 68.0 °F 66.2 °F 94% 29.97 in 8.0 mi South 11.5 mph - N/A   Mostly Cloudy
5:09 PM 68.0 °F 66.2 °F 94% 29.96 in 8.0 mi South 15.0 mph - N/A   Mostly Cloudy
5:58 PM 67.5 °F 66.2 °F 96% 29.99 in 9.0 mi South 12.7 mph 20.7 mph 0.00 in   Mostly Cloudy
6:03 PM 68.0 °F 66.2 °F 94% 29.98 in 9.0 mi South 13.8 mph 20.7 mph N/A   Mostly Cloudy
6:34 PM 68.0 °F 66.2 °F 94% 29.99 in 9.0 mi South 16.1 mph - N/A   Mostly Cloudy
6:58 PM 67.8 °F 66.7 °F 96% 29.99 in 10.0 mi South 19.6 mph 25.3 mph N/A   Scattered Clouds
7:08 PM 68.0 °F 66.2 °F 94% 29.99 in 9.0 mi South 16.1 mph 25.3 mph N/A   Mostly Cloudy
7:58 PM 68.5 °F 67.5 °F 96% 30.02 in 10.0 mi South 17.3 mph - N/A   Overcast
8:03 PM 68.0 °F 68.0 °F 100% 30.01 in 10.0 mi South 17.3 mph 25.3 mph N/A   Overcast
8:58 PM 68.4 °F 67.5 °F 97% 30.03 in 7.0 mi South 11.5 mph - N/A   Overcast
9:13 PM 68.0 °F 68.0 °F 100% 30.02 in 7.0 mi SSW 11.5 mph - N/A   Overcast
9:48 PM 68.0 °F 68.0 °F 100% 30.01 in 2.5 mi South 15.0 mph - N/A   Overcast
9:53 PM 68.0 °F 68.0 °F 100% 30.01 in 2.5 mi South 17.3 mph 24.2 mph N/A   Overcast
9:58 PM 68.5 °F 67.6 °F 97% 30.02 in 2.5 mi South 15.0 mph 24.2 mph N/A   Mostly Cloudy
10:03 PM 68.0 °F 68.0 °F 100% 30.01 in 1.5 mi South 13.8 mph 24.2 mph N/A   Overcast
10:08 PM 68.0 °F 66.2 °F 94% 30.01 in 0.8 mi South 15.0 mph 21.9 mph N/A   Mist
10:13 PM 68.0 °F 66.2 °F 94% 30.01 in 0.8 mi South 17.3 mph 21.9 mph N/A   Mist
10:18 PM 68.0 °F 66.2 °F 94% 30.01 in 1.0 mi South 16.1 mph - N/A   Mist
10:33 PM 68.0 °F 66.2 °F 94% 30.01 in 1.0 mi South 13.8 mph - N/A   Mist
10:38 PM 68.0 °F 66.2 °F 94% 30.02 in 1.2 mi South 16.1 mph 24.2 mph N/A   Overcast
10:43 PM 68.0 °F 66.2 °F 94% 30.02 in 2.0 mi SSW 15.0 mph 24.2 mph N/A   Overcast
10:48 PM 68.0 °F 66.2 °F 94% 30.02 in 3.0 mi SSW 15.0 mph 24.2 mph N/A   Overcast
10:58 PM 68.0 °F 66.2 °F 94% 30.03 in 2.5 mi South 15.0 mph - N/A   Mostly Cloudy
11:13 PM 68.0 °F 66.2 °F 94% 30.03 in 3.0 mi South 13.8 mph - N/A   Mostly Cloudy
11:18 PM 66.2 °F 66.2 °F 100% 30.02 in 2.5 mi South 12.7 mph - N/A   Mostly Cloudy
11:23 PM 66.2 °F 66.2 °F 100% 30.02 in 1.8 mi South 13.8 mph - N/A   Mostly Cloudy
11:28 PM 66.2 °F 66.2 °F 100% 30.02 in 2.5 mi South 13.8 mph - N/A   Mostly Cloudy
11:33 PM 66.2 °F 66.2 °F 100% 30.02 in 3.0 mi SSW 16.1 mph - N/A   Overcast
11:39 PM 68.0 °F 66.2 °F 94% 30.03 in 4.0 mi SSW 15.0 mph - N/A   Overcast
11:44 PM 68.0 °F 66.2 °F 94% 30.03 in 7.0 mi SSW 13.8 mph - N/A   Overcast
11:54 PM 68.0 °F 66.2 °F 94% 30.03 in 6.0 mi South 12.7 mph - N/A   Overcast
11:58 PM 67.1 °F 66.6 °F 98% 30.04 in 6.0 mi South 12.7 mph - N/A   Overcast